Year,Month,Day,Hour,Minute,Value (Times are PST for temperature in C)
2012,06,15,00,00,8.90
2012,06,15,00,01,8.90
2012,06,15,00,02,8.90
2012,06,15,00,03,8.80
2012,06,15,00,04,8.80
2012,06,15,00,05,8.80
2012,06,15,00,06,8.80
2012,06,15,00,07,8.80
2012,06,15,00,08,8.80
2012,06,15,00,09,8.70
2012,06,15,00,10,8.70
2012,06,15,00,11,8.80
2012,06,15,00,12,8.80
2012,06,15,00,13,8.80
2012,06,15,00,14,8.80
2012,06,15,00,15,8.80
2012,06,15,00,16,8.80
2012,06,15,00,17,8.80
2012,06,15,00,18,8.80
2012,06,15,00,19,8.80
2012,06,15,00,20,8.70
2012,06,15,00,21,8.70
2012,06,15,00,22,8.70
2012,06,15,00,23,8.70
2012,06,15,00,24,8.70
2012,06,15,00,25,8.70
2012,06,15,00,26,8.70
2012,06,15,00,27,8.70
2012,06,15,00,28,8.70
2012,06,15,00,29,8.70
2012,06,15,00,30,8.70
2012,06,15,00,31,8.70
2012,06,15,00,32,8.70
2012,06,15,00,33,8.70
2012,06,15,00,34,8.70
2012,06,15,00,35,8.70
2012,06,15,00,36,8.70
2012,06,15,00,37,8.70
2012,06,15,00,38,8.70
2012,06,15,00,39,8.70
2012,06,15,00,40,8.70
2012,06,15,00,41,8.60
2012,06,15,00,42,8.60
2012,06,15,00,43,8.50
2012,06,15,00,44,8.50
2012,06,15,00,45,8.50
2012,06,15,00,46,8.40
2012,06,15,00,47,8.40
2012,06,15,00,48,8.40
2012,06,15,00,49,8.30
2012,06,15,00,50,8.30
2012,06,15,00,51,8.30
2012,06,15,00,52,8.20
2012,06,15,00,53,8.20
2012,06,15,00,54,8.20
2012,06,15,00,55,8.20
2012,06,15,00,56,8.20
2012,06,15,00,57,8.20
2012,06,15,00,58,8.20
2012,06,15,00,59,8.20
2012,06,15,01,00,8.20
2012,06,15,01,01,8.20
2012,06,15,01,02,8.20
2012,06,15,01,03,8.20
2012,06,15,01,04,8.20
2012,06,15,01,05,8.20
2012,06,15,01,06,8.20
2012,06,15,01,07,8.20
2012,06,15,01,08,8.20
2012,06,15,01,09,8.20
2012,06,15,01,10,8.30
2012,06,15,01,11,8.30
2012,06,15,01,12,8.30
2012,06,15,01,13,8.30
2012,06,15,01,14,8.40
2012,06,15,01,15,8.40
2012,06,15,01,16,8.40
2012,06,15,01,17,8.40
2012,06,15,01,18,8.40
2012,06,15,01,19,8.40
2012,06,15,01,20,8.40
2012,06,15,01,21,8.30
2012,06,15,01,22,8.30
2012,06,15,01,23,8.30
2012,06,15,01,24,8.30
2012,06,15,01,25,8.20
2012,06,15,01,26,8.20
2012,06,15,01,27,8.20
2012,06,15,01,28,8.20
2012,06,15,01,29,8.10
2012,06,15,01,30,8.10
2012,06,15,01,31,8.10
2012,06,15,01,32,8.00
2012,06,15,01,33,8.00
2012,06,15,01,34,8.00
2012,06,15,01,35,7.90
2012,06,15,01,36,7.90
2012,06,15,01,37,7.90
2012,06,15,01,38,7.90
2012,06,15,01,39,7.90
2012,06,15,01,40,7.80
2012,06,15,01,41,7.80
2012,06,15,01,42,7.80
2012,06,15,01,43,7.80
2012,06,15,01,44,7.80
2012,06,15,01,45,7.90
2012,06,15,01,46,7.90
2012,06,15,01,47,7.90
2012,06,15,01,48,7.90
2012,06,15,01,49,7.90
2012,06,15,01,50,8.00
2012,06,15,01,51,8.00
2012,06,15,01,52,8.10
2012,06,15,01,53,8.20
2012,06,15,01,54,8.20
2012,06,15,01,55,8.20
2012,06,15,01,56,8.30
2012,06,15,01,57,8.30
2012,06,15,01,58,8.40
2012,06,15,01,59,8.40
2012,06,15,02,00,8.30
2012,06,15,02,01,8.30
2012,06,15,02,02,8.30
2012,06,15,02,03,8.30
2012,06,15,02,04,8.30
2012,06,15,02,05,8.30
2012,06,15,02,06,8.30
2012,06,15,02,07,8.30
2012,06,15,02,08,8.30
2012,06,15,02,09,8.30
2012,06,15,02,10,8.30
2012,06,15,02,11,8.30
2012,06,15,02,12,8.30
2012,06,15,02,13,8.30
2012,06,15,02,14,8.30
2012,06,15,02,15,8.30
2012,06,15,02,16,8.40
2012,06,15,02,17,8.40
2012,06,15,02,18,8.30
2012,06,15,02,19,8.30
2012,06,15,02,20,8.30
2012,06,15,02,21,8.30
2012,06,15,02,22,8.20
2012,06,15,02,23,8.20
2012,06,15,02,24,8.20
2012,06,15,02,25,8.20
2012,06,15,02,26,8.20
2012,06,15,02,27,8.20
2012,06,15,02,28,8.10
2012,06,15,02,29,8.10
2012,06,15,02,30,8.00
2012,06,15,02,31,8.00
2012,06,15,02,32,7.90
2012,06,15,02,33,7.90
2012,06,15,02,34,7.80
2012,06,15,02,35,7.80
2012,06,15,02,36,7.80
2012,06,15,02,37,7.80
2012,06,15,02,38,7.70
2012,06,15,02,39,7.70
2012,06,15,02,40,7.70
2012,06,15,02,41,7.60
2012,06,15,02,42,7.60
2012,06,15,02,43,7.60
2012,06,15,02,44,7.50
2012,06,15,02,45,7.50
2012,06,15,02,46,7.60
2012,06,15,02,47,7.60
2012,06,15,02,48,7.60
2012,06,15,02,49,7.60
2012,06,15,02,50,7.60
2012,06,15,02,51,7.60
2012,06,15,02,52,7.60
2012,06,15,02,53,7.60
2012,06,15,02,54,7.70
2012,06,15,02,55,7.70
2012,06,15,02,56,7.80
2012,06,15,02,57,7.80
2012,06,15,02,58,7.80
2012,06,15,02,59,7.80
2012,06,15,03,00,7.80
2012,06,15,03,01,7.80
2012,06,15,03,02,7.80
2012,06,15,03,03,7.80
2012,06,15,03,04,7.80
2012,06,15,03,05,7.90
2012,06,15,03,06,7.90
2012,06,15,03,07,7.90
2012,06,15,03,08,8.00
2012,06,15,03,09,8.00
2012,06,15,03,10,7.90
2012,06,15,03,11,7.90
2012,06,15,03,12,7.80
2012,06,15,03,13,7.80
2012,06,15,03,14,7.70
2012,06,15,03,15,7.70
2012,06,15,03,16,7.60
2012,06,15,03,17,7.60
2012,06,15,03,18,7.50
2012,06,15,03,19,7.50
2012,06,15,03,20,7.50
2012,06,15,03,21,7.50
2012,06,15,03,22,7.60
2012,06,15,03,23,7.60
2012,06,15,03,24,7.60
2012,06,15,03,25,7.60
2012,06,15,03,26,7.60
2012,06,15,03,27,7.60
2012,06,15,03,28,7.60
2012,06,15,03,29,7.70
2012,06,15,03,30,7.70
2012,06,15,03,31,7.70
2012,06,15,03,32,7.70
2012,06,15,03,33,7.70
2012,06,15,03,34,7.60
2012,06,15,03,35,7.60
2012,06,15,03,36,7.60
2012,06,15,03,37,7.70
2012,06,15,03,38,7.80
2012,06,15,03,39,7.80
2012,06,15,03,40,7.90
2012,06,15,03,41,7.90
2012,06,15,03,42,7.90
2012,06,15,03,43,7.90
2012,06,15,03,44,7.90
2012,06,15,03,45,7.90
2012,06,15,03,46,7.90
2012,06,15,03,47,7.90
2012,06,15,03,48,7.90
2012,06,15,03,49,7.90
2012,06,15,03,50,7.90
2012,06,15,03,51,7.90
2012,06,15,03,52,7.90
2012,06,15,03,53,7.80
2012,06,15,03,54,7.80
2012,06,15,03,55,7.80
2012,06,15,03,56,7.80
2012,06,15,03,57,7.80
2012,06,15,03,58,7.80
2012,06,15,03,59,7.80
2012,06,15,04,00,7.80
2012,06,15,04,01,7.80
2012,06,15,04,02,7.80
2012,06,15,04,03,7.80
2012,06,15,04,04,7.80
2012,06,15,04,05,7.80
2012,06,15,04,06,7.80
2012,06,15,04,07,7.90
2012,06,15,04,08,7.90
2012,06,15,04,09,7.90
2012,06,15,04,10,7.90
2012,06,15,04,11,7.90
2012,06,15,04,12,7.90
2012,06,15,04,13,7.80
2012,06,15,04,14,7.80
2012,06,15,04,15,7.80
2012,06,15,04,16,7.80
2012,06,15,04,17,7.80
2012,06,15,04,18,7.70
2012,06,15,04,19,7.70
2012,06,15,04,20,7.60
2012,06,15,04,21,7.60
2012,06,15,04,22,7.60
2012,06,15,04,23,7.50
2012,06,15,04,24,7.50
2012,06,15,04,25,7.50
2012,06,15,04,26,7.40
2012,06,15,04,27,7.40
2012,06,15,04,28,7.40
2012,06,15,04,29,7.40
2012,06,15,04,30,7.40
2012,06,15,04,31,7.40
2012,06,15,04,32,7.40
2012,06,15,04,33,7.40
2012,06,15,04,34,7.40
2012,06,15,04,35,7.40
2012,06,15,04,36,7.40
2012,06,15,04,37,7.40
2012,06,15,04,38,7.40
2012,06,15,04,39,7.40
2012,06,15,04,40,7.40
2012,06,15,04,41,7.30
2012,06,15,04,42,7.30
2012,06,15,04,43,7.30
2012,06,15,04,44,7.30
2012,06,15,04,45,7.30
2012,06,15,04,46,7.20
2012,06,15,04,47,7.20
2012,06,15,04,48,7.10
2012,06,15,04,49,7.10
2012,06,15,04,50,7.00
2012,06,15,04,51,7.00
2012,06,15,04,52,6.90
2012,06,15,04,53,6.90
2012,06,15,04,54,6.80
2012,06,15,04,55,6.80
2012,06,15,04,56,6.80
2012,06,15,04,57,6.80
2012,06,15,04,58,6.80
2012,06,15,04,59,6.80
2012,06,15,05,00,6.80
2012,06,15,05,01,6.80
2012,06,15,05,02,6.80
2012,06,15,05,03,6.70
2012,06,15,05,04,6.70
2012,06,15,05,05,6.70
2012,06,15,05,06,6.70
2012,06,15,05,07,6.70
2012,06,15,05,08,6.60
2012,06,15,05,09,6.60
2012,06,15,05,10,6.70
2012,06,15,05,11,6.80
2012,06,15,05,12,6.80
2012,06,15,05,13,6.80
2012,06,15,05,14,6.80
2012,06,15,05,15,6.80
2012,06,15,05,16,6.80
2012,06,15,05,17,6.80
2012,06,15,05,18,6.80
2012,06,15,05,19,6.80
2012,06,15,05,20,6.80
2012,06,15,05,21,6.80
2012,06,15,05,22,6.80
2012,06,15,05,23,6.80
2012,06,15,05,24,6.90
2012,06,15,05,25,7.00
2012,06,15,05,26,7.10
2012,06,15,05,27,7.20
2012,06,15,05,28,7.30
2012,06,15,05,29,7.30
2012,06,15,05,30,7.40
2012,06,15,05,31,7.40
2012,06,15,05,32,7.50
2012,06,15,05,33,7.50
2012,06,15,05,34,7.60
2012,06,15,05,35,7.60
2012,06,15,05,36,7.60
2012,06,15,05,37,7.70
2012,06,15,05,38,7.70
2012,06,15,05,39,7.70
2012,06,15,05,40,7.70
2012,06,15,05,41,7.70
2012,06,15,05,42,7.80
2012,06,15,05,43,7.80
2012,06,15,05,44,7.80
2012,06,15,05,45,7.80
2012,06,15,05,46,7.80
2012,06,15,05,47,7.80
2012,06,15,05,48,7.90
2012,06,15,05,49,7.90
2012,06,15,05,50,7.90
2012,06,15,05,51,7.90
2012,06,15,05,52,7.90
2012,06,15,05,53,8.00
2012,06,15,05,54,8.00
2012,06,15,05,55,8.00
2012,06,15,05,56,8.00
2012,06,15,05,57,8.10
2012,06,15,05,58,8.10
2012,06,15,05,59,8.10
2012,06,15,06,00,8.10
2012,06,15,06,01,8.10
2012,06,15,06,02,8.10
2012,06,15,06,03,8.10
2012,06,15,06,04,8.10
2012,06,15,06,05,8.20
2012,06,15,06,06,8.20
2012,06,15,06,07,8.20
2012,06,15,06,08,8.20
2012,06,15,06,09,8.30
2012,06,15,06,10,8.30
2012,06,15,06,11,8.40
2012,06,15,06,12,8.40
2012,06,15,06,13,8.50
2012,06,15,06,14,8.50
2012,06,15,06,15,8.50
2012,06,15,06,16,8.50
2012,06,15,06,17,8.60
2012,06,15,06,18,8.60
2012,06,15,06,19,8.60
2012,06,15,06,20,8.60
2012,06,15,06,21,8.70
2012,06,15,06,22,8.70
2012,06,15,06,23,8.70
2012,06,15,06,24,8.70
2012,06,15,06,25,8.70
2012,06,15,06,26,8.70
2012,06,15,06,27,8.70
2012,06,15,06,28,8.70
2012,06,15,06,29,8.70
2012,06,15,06,30,8.70
2012,06,15,06,31,8.70
2012,06,15,06,32,8.80
2012,06,15,06,33,8.80
2012,06,15,06,34,8.80
2012,06,15,06,35,8.90
2012,06,15,06,36,8.90
2012,06,15,06,37,8.90
2012,06,15,06,38,8.90
2012,06,15,06,39,8.90
2012,06,15,06,40,9.00
2012,06,15,06,41,9.00
2012,06,15,06,42,9.00
2012,06,15,06,43,9.00
2012,06,15,06,44,9.10
2012,06,15,06,45,9.10
2012,06,15,06,46,9.10
2012,06,15,06,47,9.10
2012,06,15,06,48,9.10
2012,06,15,06,49,9.10
2012,06,15,06,50,9.20
2012,06,15,06,51,9.20
2012,06,15,06,52,9.20
2012,06,15,06,53,9.20
2012,06,15,06,54,9.20
2012,06,15,06,55,9.20
2012,06,15,06,56,9.20
2012,06,15,06,57,9.20
2012,06,15,06,58,9.30
2012,06,15,06,59,9.30
2012,06,15,07,00,9.30
2012,06,15,07,01,9.40
2012,06,15,07,02,9.40
2012,06,15,07,03,9.50
2012,06,15,07,04,9.60
2012,06,15,07,05,9.60
2012,06,15,07,06,9.60
2012,06,15,07,07,9.60
2012,06,15,07,08,9.70
2012,06,15,07,09,9.70
2012,06,15,07,10,9.70
2012,06,15,07,11,9.70
2012,06,15,07,12,9.70
2012,06,15,07,13,9.70
2012,06,15,07,14,9.70
2012,06,15,07,15,9.80
2012,06,15,07,16,9.80
2012,06,15,07,17,9.90
2012,06,15,07,18,9.90
2012,06,15,07,19,10.10
2012,06,15,07,20,10.10
2012,06,15,07,21,10.20
2012,06,15,07,22,10.20
2012,06,15,07,23,10.30
2012,06,15,07,24,10.40
2012,06,15,07,25,10.40
2012,06,15,07,26,10.40
2012,06,15,07,27,10.50
2012,06,15,07,28,10.60
2012,06,15,07,29,10.60
2012,06,15,07,30,10.60
2012,06,15,07,31,10.60
2012,06,15,07,32,10.50
2012,06,15,07,33,10.40
2012,06,15,07,34,10.40
2012,06,15,07,35,10.40
2012,06,15,07,36,10.40
2012,06,15,07,37,10.40
2012,06,15,07,38,10.40
2012,06,15,07,39,10.40
2012,06,15,07,40,10.40
2012,06,15,07,41,10.40
2012,06,15,07,42,10.40
2012,06,15,07,43,10.40
2012,06,15,07,44,10.60
2012,06,15,07,45,10.60
2012,06,15,07,46,10.70
2012,06,15,07,47,10.70
2012,06,15,07,48,10.80
2012,06,15,07,49,10.80
2012,06,15,07,50,10.90
2012,06,15,07,51,10.90
2012,06,15,07,52,10.90
2012,06,15,07,53,10.80
2012,06,15,07,54,10.80
2012,06,15,07,55,10.80
2012,06,15,07,56,10.80
2012,06,15,07,57,10.80
2012,06,15,07,58,10.80
2012,06,15,07,59,10.80
2012,06,15,08,00,10.80
2012,06,15,08,01,10.80
2012,06,15,08,02,10.70
2012,06,15,08,03,10.70
2012,06,15,08,04,10.70
2012,06,15,08,05,10.80
2012,06,15,08,06,10.80
2012,06,15,08,07,10.80
2012,06,15,08,08,10.90
2012,06,15,08,09,10.90
2012,06,15,08,10,10.90
2012,06,15,08,11,10.90
2012,06,15,08,12,10.90
2012,06,15,08,13,11.00
2012,06,15,08,14,11.10
2012,06,15,08,15,11.10
2012,06,15,08,16,11.10
2012,06,15,08,17,11.10
2012,06,15,08,18,11.10
2012,06,15,08,19,11.10
2012,06,15,08,20,11.10
2012,06,15,08,21,11.20
2012,06,15,08,22,11.20
2012,06,15,08,23,11.20
2012,06,15,08,24,11.20
2012,06,15,08,25,11.30
2012,06,15,08,26,11.30
2012,06,15,08,27,11.30
2012,06,15,08,28,11.30
2012,06,15,08,29,11.40
2012,06,15,08,30,11.40
2012,06,15,08,31,11.50
2012,06,15,08,32,11.60
2012,06,15,08,33,11.60
2012,06,15,08,34,11.60
2012,06,15,08,35,11.70
2012,06,15,08,36,11.80
2012,06,15,08,37,11.80
2012,06,15,08,38,11.80
2012,06,15,08,39,11.90
2012,06,15,08,40,12.00
2012,06,15,08,41,12.00
2012,06,15,08,42,12.00
2012,06,15,08,43,12.00
2012,06,15,08,44,12.00
2012,06,15,08,45,12.00
2012,06,15,08,46,11.90
2012,06,15,08,47,12.00
2012,06,15,08,48,12.00
2012,06,15,08,49,12.10
2012,06,15,08,50,12.10
2012,06,15,08,51,12.20
2012,06,15,08,52,12.20
2012,06,15,08,53,12.30
2012,06,15,08,54,12.30
2012,06,15,08,55,12.40
2012,06,15,08,56,12.50
2012,06,15,08,57,12.60
2012,06,15,08,58,12.60
2012,06,15,08,59,12.60
2012,06,15,09,00,12.70
2012,06,15,09,01,12.70
2012,06,15,09,02,12.80
2012,06,15,09,03,12.80
2012,06,15,09,04,12.80
2012,06,15,09,05,12.80
2012,06,15,09,06,12.80
2012,06,15,09,07,12.70
2012,06,15,09,08,12.70
2012,06,15,09,09,12.60
2012,06,15,09,10,12.60
2012,06,15,09,11,12.50
2012,06,15,09,12,12.50
2012,06,15,09,13,12.50
2012,06,15,09,14,12.60
2012,06,15,09,15,12.60
2012,06,15,09,16,12.60
2012,06,15,09,17,12.50
2012,06,15,09,18,12.50
2012,06,15,09,19,12.50
2012,06,15,09,20,12.50
2012,06,15,09,21,12.40
2012,06,15,09,22,12.40
2012,06,15,09,23,12.40
2012,06,15,09,24,12.50
2012,06,15,09,25,12.50
2012,06,15,09,26,12.50
2012,06,15,09,27,12.60
2012,06,15,09,28,12.60
2012,06,15,09,29,12.60
2012,06,15,09,30,12.70
2012,06,15,09,31,12.80
2012,06,15,09,32,13.00
2012,06,15,09,33,13.00
2012,06,15,09,34,13.00
2012,06,15,09,35,13.10
2012,06,15,09,36,13.10
2012,06,15,09,37,13.20
2012,06,15,09,38,13.30
2012,06,15,09,39,13.40
2012,06,15,09,40,13.50
2012,06,15,09,41,13.60
2012,06,15,09,42,13.60
2012,06,15,09,43,13.60
2012,06,15,09,44,13.50
2012,06,15,09,45,13.30
2012,06,15,09,46,13.30
2012,06,15,09,47,13.20
2012,06,15,09,48,13.00
2012,06,15,09,49,12.90
2012,06,15,09,50,12.80
2012,06,15,09,51,12.80
2012,06,15,09,52,12.80
2012,06,15,09,53,12.80
2012,06,15,09,54,12.70
2012,06,15,09,55,12.70
2012,06,15,09,56,12.70
2012,06,15,09,57,12.70
2012,06,15,09,58,12.90
2012,06,15,09,59,13.00
2012,06,15,10,00,13.20
2012,06,15,10,01,13.20
2012,06,15,10,02,13.20
2012,06,15,10,03,13.10
2012,06,15,10,04,13.10
2012,06,15,10,05,13.10
2012,06,15,10,06,13.20
2012,06,15,10,07,13.40
2012,06,15,10,08,13.50
2012,06,15,10,09,13.50
2012,06,15,10,10,13.60
2012,06,15,10,11,13.60
2012,06,15,10,12,13.50
2012,06,15,10,13,13.50
2012,06,15,10,14,13.50
2012,06,15,10,15,13.40
2012,06,15,10,16,13.20
2012,06,15,10,17,13.10
2012,06,15,10,18,13.10
2012,06,15,10,19,13.10
2012,06,15,10,20,13.10
2012,06,15,10,21,13.00
2012,06,15,10,22,13.00
2012,06,15,10,23,13.00
2012,06,15,10,24,12.90
2012,06,15,10,25,13.00
2012,06,15,10,26,13.10
2012,06,15,10,27,13.30
2012,06,15,10,28,13.40
2012,06,15,10,29,13.50
2012,06,15,10,30,13.40
2012,06,15,10,31,13.40
2012,06,15,10,32,13.40
2012,06,15,10,33,13.30
2012,06,15,10,34,13.30
2012,06,15,10,35,13.30
2012,06,15,10,36,13.30
2012,06,15,10,37,13.20
2012,06,15,10,38,13.10
2012,06,15,10,39,13.10
2012,06,15,10,40,13.20
2012,06,15,10,41,13.30
2012,06,15,10,42,13.40
2012,06,15,10,43,13.50
2012,06,15,10,44,13.40
2012,06,15,10,45,13.40
2012,06,15,10,46,13.30
2012,06,15,10,47,13.20
2012,06,15,10,48,13.10
2012,06,15,10,49,13.10
2012,06,15,10,50,13.10
2012,06,15,10,51,13.10
2012,06,15,10,52,13.20
2012,06,15,10,53,13.20
2012,06,15,10,54,13.20
2012,06,15,10,55,13.30
2012,06,15,10,56,13.40
2012,06,15,10,57,13.40
2012,06,15,10,58,13.40
2012,06,15,10,59,13.40
2012,06,15,11,00,13.30
2012,06,15,11,01,13.30
2012,06,15,11,02,13.20
2012,06,15,11,03,13.20
2012,06,15,11,04,13.20
2012,06,15,11,05,13.30
2012,06,15,11,06,13.30
2012,06,15,11,07,13.30
2012,06,15,11,08,13.20
2012,06,15,11,09,13.10
2012,06,15,11,10,13.10
2012,06,15,11,11,13.10
2012,06,15,11,12,13.00
2012,06,15,11,13,13.00
2012,06,15,11,14,13.00
2012,06,15,11,15,13.00
2012,06,15,11,16,13.10
2012,06,15,11,17,13.30
2012,06,15,11,18,13.40
2012,06,15,11,19,13.40
2012,06,15,11,20,13.50
2012,06,15,11,21,13.50
2012,06,15,11,22,13.60
2012,06,15,11,23,13.60
2012,06,15,11,24,13.50
2012,06,15,11,25,13.60
2012,06,15,11,26,13.60
2012,06,15,11,27,13.70
2012,06,15,11,28,13.70
2012,06,15,11,29,13.70
2012,06,15,11,30,13.80
2012,06,15,11,31,13.90
2012,06,15,11,32,13.90
2012,06,15,11,33,13.80
2012,06,15,11,34,13.70
2012,06,15,11,35,13.80
2012,06,15,11,36,13.80
2012,06,15,11,37,13.90
2012,06,15,11,38,13.90
2012,06,15,11,39,14.10
2012,06,15,11,40,14.30
2012,06,15,11,41,14.50
2012,06,15,11,42,14.60
2012,06,15,11,43,14.70
2012,06,15,11,44,14.70
2012,06,15,11,45,14.60
2012,06,15,11,46,14.50
2012,06,15,11,47,14.60
2012,06,15,11,48,14.60
2012,06,15,11,49,14.60
2012,06,15,11,50,14.60
2012,06,15,11,51,14.60
2012,06,15,11,52,14.60
2012,06,15,11,53,14.60
2012,06,15,11,54,14.60
2012,06,15,11,55,14.60
2012,06,15,11,56,14.60
2012,06,15,11,57,14.60
2012,06,15,11,58,14.40
2012,06,15,11,59,14.40
2012,06,15,12,00,14.50
2012,06,15,12,01,14.50
2012,06,15,12,02,14.50
2012,06,15,12,03,14.60
2012,06,15,12,04,14.60
2012,06,15,12,05,14.60
2012,06,15,12,06,14.60
2012,06,15,12,07,14.60
2012,06,15,12,08,14.60
2012,06,15,12,09,14.60
2012,06,15,12,10,14.60
2012,06,15,12,11,14.60
2012,06,15,12,12,14.60
2012,06,15,12,13,14.80
2012,06,15,12,14,15.00
2012,06,15,12,15,15.00
2012,06,15,12,16,14.90
2012,06,15,12,17,14.80
2012,06,15,12,18,14.90
2012,06,15,12,19,14.90
2012,06,15,12,20,14.80
2012,06,15,12,21,14.80
2012,06,15,12,22,14.90
2012,06,15,12,23,15.00
2012,06,15,12,24,15.10
2012,06,15,12,25,15.20
2012,06,15,12,26,15.30
2012,06,15,12,27,15.30
2012,06,15,12,28,15.30
2012,06,15,12,29,15.60
2012,06,15,12,30,15.70
2012,06,15,12,31,15.70
2012,06,15,12,32,15.70
2012,06,15,12,33,15.60
2012,06,15,12,34,15.70
2012,06,15,12,35,15.70
2012,06,15,12,36,15.60
2012,06,15,12,37,15.50
2012,06,15,12,38,15.40
2012,06,15,12,39,15.30
2012,06,15,12,40,15.20
2012,06,15,12,41,15.00
2012,06,15,12,42,14.80
2012,06,15,12,43,14.80
2012,06,15,12,44,14.80
2012,06,15,12,45,14.80
2012,06,15,12,46,14.90
2012,06,15,12,47,14.90
2012,06,15,12,48,15.00
2012,06,15,12,49,15.00
2012,06,15,12,50,15.10
2012,06,15,12,51,15.10
2012,06,15,12,52,15.20
2012,06,15,12,53,15.30
2012,06,15,12,54,15.40
2012,06,15,12,55,15.60
2012,06,15,12,56,15.70
2012,06,15,12,57,15.80
2012,06,15,12,58,15.80
2012,06,15,12,59,15.80
2012,06,15,13,00,15.90
2012,06,15,13,01,15.80
2012,06,15,13,02,15.70
2012,06,15,13,03,15.70
2012,06,15,13,04,15.80
2012,06,15,13,05,15.70
2012,06,15,13,06,15.50
2012,06,15,13,07,15.60
2012,06,15,13,08,15.60
2012,06,15,13,09,15.80
2012,06,15,13,10,15.80
2012,06,15,13,11,15.80
2012,06,15,13,12,15.80
2012,06,15,13,13,15.90
2012,06,15,13,14,15.80
2012,06,15,13,15,15.80
2012,06,15,13,16,15.70
2012,06,15,13,17,15.70
2012,06,15,13,18,15.60
2012,06,15,13,19,15.70
2012,06,15,13,20,15.70
2012,06,15,13,21,15.80
2012,06,15,13,22,15.80
2012,06,15,13,23,15.80
2012,06,15,13,24,15.80
2012,06,15,13,25,15.80
2012,06,15,13,26,15.70
2012,06,15,13,27,15.70
2012,06,15,13,28,15.60
2012,06,15,13,29,15.70
2012,06,15,13,30,15.80
2012,06,15,13,31,15.80
2012,06,15,13,32,15.80
2012,06,15,13,33,15.80
2012,06,15,13,34,15.90
2012,06,15,13,35,15.90
2012,06,15,13,36,16.00
2012,06,15,13,37,16.10
2012,06,15,13,38,16.20
2012,06,15,13,39,16.20
2012,06,15,13,40,16.10
2012,06,15,13,41,16.10
2012,06,15,13,42,16.20
2012,06,15,13,43,16.30
2012,06,15,13,44,16.40
2012,06,15,13,45,16.40
2012,06,15,13,46,16.30
2012,06,15,13,47,16.30
2012,06,15,13,48,16.30
2012,06,15,13,49,16.20
2012,06,15,13,50,16.10
2012,06,15,13,51,15.90
2012,06,15,13,52,15.80
2012,06,15,13,53,15.90
2012,06,15,13,54,15.90
2012,06,15,13,55,16.00
2012,06,15,13,56,16.10
2012,06,15,13,57,16.10
2012,06,15,13,58,16.10
2012,06,15,13,59,16.10
2012,06,15,14,00,16.10
2012,06,15,14,01,16.20
2012,06,15,14,02,16.30
2012,06,15,14,03,16.40
2012,06,15,14,04,16.30
2012,06,15,14,05,16.30
2012,06,15,14,06,16.40
2012,06,15,14,07,16.30
2012,06,15,14,08,16.20
2012,06,15,14,09,16.10
2012,06,15,14,10,16.10
2012,06,15,14,11,16.10
2012,06,15,14,12,16.20
2012,06,15,14,13,16.30
2012,06,15,14,14,16.30
2012,06,15,14,15,16.20
2012,06,15,14,16,16.10
2012,06,15,14,17,15.90
2012,06,15,14,18,15.80
2012,06,15,14,19,15.80
2012,06,15,14,20,15.80
2012,06,15,14,21,15.80
2012,06,15,14,22,15.90
2012,06,15,14,23,15.90
2012,06,15,14,24,16.00
2012,06,15,14,25,16.10
2012,06,15,14,26,16.10
2012,06,15,14,27,16.20
2012,06,15,14,28,16.20
2012,06,15,14,29,16.30
2012,06,15,14,30,16.30
2012,06,15,14,31,16.30
2012,06,15,14,32,16.40
2012,06,15,14,33,16.40
2012,06,15,14,34,16.30
2012,06,15,14,35,16.20
2012,06,15,14,36,16.20
2012,06,15,14,37,16.20
2012,06,15,14,38,16.10
2012,06,15,14,39,16.10
2012,06,15,14,40,16.10
2012,06,15,14,41,16.10
2012,06,15,14,42,16.20
2012,06,15,14,43,16.20
2012,06,15,14,44,16.40
2012,06,15,14,45,16.40
2012,06,15,14,46,16.40
2012,06,15,14,47,16.40
2012,06,15,14,48,16.40
2012,06,15,14,49,16.40
2012,06,15,14,50,16.40
2012,06,15,14,51,16.40
2012,06,15,14,52,16.40
2012,06,15,14,53,16.30
2012,06,15,14,54,16.30
2012,06,15,14,55,16.20
2012,06,15,14,56,16.20
2012,06,15,14,57,16.20
2012,06,15,14,58,16.40
2012,06,15,14,59,16.40
2012,06,15,15,00,16.50
2012,06,15,15,01,16.60
2012,06,15,15,02,16.60
2012,06,15,15,03,16.70
2012,06,15,15,04,16.70
2012,06,15,15,05,16.70
2012,06,15,15,06,16.70
2012,06,15,15,07,16.80
2012,06,15,15,08,16.80
2012,06,15,15,09,16.80
2012,06,15,15,10,16.80
2012,06,15,15,11,16.70
2012,06,15,15,12,16.70
2012,06,15,15,13,16.70
2012,06,15,15,14,16.70
2012,06,15,15,15,16.70
2012,06,15,15,16,16.70
2012,06,15,15,17,16.70
2012,06,15,15,18,16.70
2012,06,15,15,19,16.70
2012,06,15,15,20,16.80
2012,06,15,15,21,16.90
2012,06,15,15,22,16.90
2012,06,15,15,23,16.80
2012,06,15,15,24,16.80
2012,06,15,15,25,16.70
2012,06,15,15,26,16.80
2012,06,15,15,27,16.70
2012,06,15,15,28,16.50
2012,06,15,15,29,16.40
2012,06,15,15,30,16.40
2012,06,15,15,31,16.30
2012,06,15,15,32,16.30
2012,06,15,15,33,16.30
2012,06,15,15,34,16.40
2012,06,15,15,35,16.40
2012,06,15,15,36,16.50
2012,06,15,15,37,16.70
2012,06,15,15,38,16.80
2012,06,15,15,39,16.70
2012,06,15,15,40,16.70
2012,06,15,15,41,16.70
2012,06,15,15,42,16.70
2012,06,15,15,43,16.70
2012,06,15,15,44,16.80
2012,06,15,15,45,16.80
2012,06,15,15,46,16.70
2012,06,15,15,47,16.70
2012,06,15,15,48,16.70
2012,06,15,15,49,16.70
2012,06,15,15,50,16.70
2012,06,15,15,51,16.70
2012,06,15,15,52,16.80
2012,06,15,15,53,16.80
2012,06,15,15,54,16.80
2012,06,15,15,55,16.80
2012,06,15,15,56,16.80
2012,06,15,15,57,16.80
2012,06,15,15,58,16.80
2012,06,15,15,59,16.70
2012,06,15,16,00,16.70
2012,06,15,16,01,16.70
2012,06,15,16,02,16.70
2012,06,15,16,03,16.60
2012,06,15,16,04,16.60
2012,06,15,16,05,16.60
2012,06,15,16,06,16.80
2012,06,15,16,07,16.80
2012,06,15,16,08,16.80
2012,06,15,16,09,16.90
2012,06,15,16,10,17.00
2012,06,15,16,11,17.00
2012,06,15,16,12,17.10
2012,06,15,16,13,17.20
2012,06,15,16,14,17.30
2012,06,15,16,15,17.30
2012,06,15,16,16,17.30
2012,06,15,16,17,17.30
2012,06,15,16,18,17.30
2012,06,15,16,19,17.30
2012,06,15,16,20,17.30
2012,06,15,16,21,17.30
2012,06,15,16,22,17.20
2012,06,15,16,23,17.20
2012,06,15,16,24,17.20
2012,06,15,16,25,17.20
2012,06,15,16,26,17.20
2012,06,15,16,27,17.30
2012,06,15,16,28,17.30
2012,06,15,16,29,17.30
2012,06,15,16,30,17.30
2012,06,15,16,31,17.40
2012,06,15,16,32,17.50
2012,06,15,16,33,17.40
2012,06,15,16,34,17.40
2012,06,15,16,35,17.30
2012,06,15,16,36,17.30
2012,06,15,16,37,17.30
2012,06,15,16,38,17.30
2012,06,15,16,39,17.20
2012,06,15,16,40,17.10
2012,06,15,16,41,17.10
2012,06,15,16,42,17.10
2012,06,15,16,43,17.10
2012,06,15,16,44,17.10
2012,06,15,16,45,17.20
2012,06,15,16,46,17.20
2012,06,15,16,47,17.30
2012,06,15,16,48,17.50
2012,06,15,16,49,17.60
2012,06,15,16,50,17.70
2012,06,15,16,51,17.70
2012,06,15,16,52,17.70
2012,06,15,16,53,17.80
2012,06,15,16,54,17.70
2012,06,15,16,55,17.60
2012,06,15,16,56,17.60
2012,06,15,16,57,17.70
2012,06,15,16,58,17.70
2012,06,15,16,59,17.70
2012,06,15,17,00,17.60
2012,06,15,17,01,17.70
2012,06,15,17,02,17.70
2012,06,15,17,03,17.80
2012,06,15,17,04,17.90
2012,06,15,17,05,17.90
2012,06,15,17,06,18.00
2012,06,15,17,07,18.10
2012,06,15,17,08,18.00
2012,06,15,17,09,17.90
2012,06,15,17,10,17.90
2012,06,15,17,11,17.90
2012,06,15,17,12,17.90
2012,06,15,17,13,17.90
2012,06,15,17,14,17.90
2012,06,15,17,15,17.90
2012,06,15,17,16,17.90
2012,06,15,17,17,17.90
2012,06,15,17,18,18.00
2012,06,15,17,19,18.10
2012,06,15,17,20,18.20
2012,06,15,17,21,18.20
2012,06,15,17,22,18.20
2012,06,15,17,23,18.20
2012,06,15,17,24,18.20
2012,06,15,17,25,18.10
2012,06,15,17,26,18.00
2012,06,15,17,27,17.90
2012,06,15,17,28,17.90
2012,06,15,17,29,17.90
2012,06,15,17,30,17.90
2012,06,15,17,31,17.90
2012,06,15,17,32,17.90
2012,06,15,17,33,17.80
2012,06,15,17,34,17.70
2012,06,15,17,35,17.70
2012,06,15,17,36,17.70
2012,06,15,17,37,17.70
2012,06,15,17,38,17.70